FW8685 Weather Reports


Display with metric or nautical units.
time (UTC)temp
F
wind
direction
speed
MPH
gust
MPH
rain 1hr
in
rain 24hr
in
rain mn
in
humidity
%
barometer
mb
20260903131024 77 111 8.0 14.0 0.00 0.00 0.00 78 1011.5
20260903130526 76 115 6.0 12.0 0.00 0.00 0.00 79 1011.5
20260903130044 75 119 7.0 12.0 0.00 0.00 0.00 80 1011.4
20260903125525 75 111 7.0 13.0 0.00 0.00 0.00 80 1011.4
20260903125024 75 117 8.0 13.0 0.00 0.00 0.00 81 1011.4
20260903124545 74 102 8.0 13.0 0.00 0.00 0.00 81 1011.3
20260903124024 74 104 9.0 12.0 0.00 0.00 0.00 81 1011.3
20260903123526 74 96 8.0 11.0 0.00 0.00 0.00 81 1011.3
20260903123048 73 119 8.0 11.0 0.00 0.00 0.00 81 1011.1
20260903122524 73 115 8.0 11.0 0.00 0.00 0.00 81 1011.0
20260903122024 73 125 7.0 11.0 0.00 0.00 0.00 81 1011.1
20260903121544 73 109 7.0 11.0 0.00 0.00 0.00 81 1011.1
20260903121025 73 111 7.0 10.0 0.00 0.00 0.00 80 1011.0
20260903120523 73 101 6.0 9.0 0.00 0.00 0.00 80 1010.9
20260903120045 73 103 5.0 9.0 0.00 0.00 0.00 80 1010.9
20260903115524 73 111 6.0 9.0 0.00 0.00 0.00 80 1010.9
20260903115024 73 110 6.0 10.0 0.00 0.00 0.00 79 1010.8
20260903114545 73 109 5.0 10.0 0.00 0.00 0.00 79 1010.7
20260903114024 73 101 6.0 10.0 0.00 0.00 0.00 79 1010.6
20260903113524 73 107 6.0 9.0 0.00 0.00 0.00 79 1010.5
20260903113046 74 107 5.0 8.0 0.00 0.00 0.00 78 1010.6
20260903112524 74 98 6.0 8.0 0.00 0.00 0.00 78 1010.6
20260903112027 74 100 5.0 7.0 0.00 0.00 0.00 77 1010.7
20260903111544 74 92 3.0 7.0 0.00 0.00 0.00 77 1010.8
20260903111024 74 113 3.0 6.0 0.00 0.00 0.00 77 1010.7
20260903110525 74 119 3.0 7.0 0.00 0.00 0.00 77 1010.8
20260903110054 74 108 4.0 7.0 0.00 0.00 0.00 77 1010.6
20260903105525 74 108 3.0 6.0 0.00 0.00 0.00 76 1010.7
20260903105024 75 114 3.0 7.0 0.00 0.00 0.00 76 1010.6
20260903104547 75 117 3.0 7.0 0.00 0.00 0.00 76 1010.6
20260903104024 75 111 4.0 8.0 0.00 0.00 0.00 76 1010.6
20260903103523 75 117 4.0 8.0 0.00 0.00 0.00 75 1010.7
20260903103052 75 121 5.0 8.0 0.00 0.00 0.00 75 1010.6
20260903102522 75 115 5.0 8.0 0.00 0.00 0.00 75 1010.6
20260903102027 75 113 4.0 7.0 0.00 0.00 0.00 74 1010.7
20260903101554 75 115 3.0 7.0 0.00 0.00 0.00 73 1010.8
20260903101023 76 119 4.0 7.0 0.00 0.00 0.00 73 1010.6
20260903100525 76 111 4.0 7.0 0.00 0.00 0.00 73 1010.5
20260903100045 76 117 4.0 7.0 0.00 0.00 0.00 72 1010.6
20260903095523 76 110 4.0 7.0 0.00 0.00 0.00 72 1010.6
20260903095026 76 116 4.0 9.0 0.00 0.00 0.00 72 1010.6
20260903094545 76 117 5.0 9.0 0.00 0.00 0.00 71 1010.4
20260903094024 77 117 5.0 8.0 0.00 0.00 0.00 70 1010.5
20260903093525 77 109 4.0 8.0 0.00 0.00 0.00 70 1010.6
20260903093103 77 109 3.0 8.0 0.00 0.00 0.00 70 1010.6
20260903092527 77 109 4.0 8.0 0.00 0.00 0.00 69 1010.6
20260903092024 77 121 4.0 9.0 0.00 0.00 0.00 69 1010.6
20260903091545 77 121 5.0 9.0 0.00 0.00 0.00 69 1010.6
20260903091024 78 103 5.0 9.0 0.00 0.00 0.00 68 1010.6
20260903090524 78 119 4.0 9.0 0.00 0.00 0.00 68 1010.5
20260903090048 78 128 5.0 9.0 0.00 0.00 0.00 68 1010.4
20260903085523 78 119 5.0 9.0 0.00 0.00 0.00 67 1010.4
20260903085024 78 128 5.0 11.0 0.00 0.00 0.00 67 1010.4
20260903084543 78 119 6.0 11.0 0.00 0.00 0.00 67 1010.3
20260903084026 78 123 6.0 11.0 0.00 0.00 0.00 66 1010.3
20260903083527 78 114 6.0 11.0 0.00 0.00 0.00 66 1010.2
20260903083047 79 121 6.0 11.0 0.00 0.00 0.00 66 1010.2
20260903082526 79 111 7.0 11.0 0.00 0.00 0.00 66 1010.4
20260903082024 79 102 6.0 11.0 0.00 0.00 0.00 65 1010.3
20260903081547 79 133 7.0 11.0 0.00 0.00 0.00 65 1010.3
20260903081024 79 115 7.0 11.0 0.00 0.00 0.00 65 1010.3
20260903080524 79 113 6.0 12.0 0.00 0.00 0.00 65 1010.2
20260903080047 79 110 8.0 12.0 0.00 0.00 0.00 65 1010.2
20260903075527 79 130 6.0 12.0 0.00 0.00 0.00 65 1010.1
20260903075028 79 114 7.0 11.0 0.00 0.00 0.00 64 1010.1
20260903074542 79 126 7.0 11.0 0.00 0.00 0.00 64 1010.0
20260903074026 79 116 6.0 11.0 0.00 0.00 0.00 64 1010.1
20260903073524 79 119 7.0 11.0 0.00 0.00 0.00 64 1010.0
20260903073046 79 99 7.0 10.0 0.00 0.00 0.00 63 1010.3
20260903072523 79 109 6.0 9.0 0.00 0.00 0.00 63 1010.3
20260903072029 79 110 6.0 9.0 0.00 0.00 0.00 63 1010.2
20260903071544 79 115 6.0 11.0 0.00 0.00 0.00 63 1010.1
20260903071025 79 111 6.0 11.0 0.00 0.00 0.00 63 1010.1
20260903070525 80 119 7.0 11.0 0.00 0.00 0.00 63 1010.2
20260903070047 80 117 6.0 11.0 0.00 0.00 0.00 62 1010.1
20260903065525 80 103 7.0 11.0 0.00 0.00 0.00 62 1010.2
20260903065023 80 105 7.0 11.0 0.00 0.00 0.00 62 1010.1
20260903064546 80 111 7.0 11.0 0.00 0.00 0.00 62 1010.0
20260903064024 80 115 7.0 11.0 0.00 0.00 0.00 62 1010.1
20260903063524 80 105 7.0 11.0 0.00 0.00 0.00 61 1010.0
20260903063109 80 102 8.0 11.0 0.00 0.00 0.00 61 1009.9
20260903062524 80 107 7.0 11.0 0.00 0.00 0.00 61 1010.0
20260903062028 81 109 7.0 10.0 0.00 0.00 0.00 61 1010.1
20260903061543 81 105 7.0 9.0 0.00 0.00 0.00 60 1010.0
20260903061024 81 108 7.0 10.0 0.00 0.00 0.00 60 1010.0
20260903060526 81 101 6.0 11.0 0.00 0.00 0.00 60 1009.9
20260903060048 81 106 6.0 11.0 0.00 0.00 0.00 60 1010.0
20260903055527 81 103 7.0 11.0 0.00 0.00 0.00 59 1009.9
20260903055024 81 103 7.0 10.0 0.00 0.00 0.00 59 1009.9
20260903054545 81 116 7.0 10.0 0.00 0.00 0.00 59 1009.9
20260903054024 81 121 7.0 11.0 0.00 0.00 0.00 59 1009.9
20260903053524 82 106 7.0 11.0 0.00 0.00 0.00 58 1010.0
20260903053041 82 111 8.0 11.0 0.00 0.00 0.00 58 1009.9
20260903052525 82 100 8.0 11.0 0.00 0.00 0.00 58 1009.9
20260903052025 82 107 7.0 11.0 0.00 0.00 0.00 58 1009.9
20260903051548 82 107 7.0 11.0 0.00 0.00 0.00 57 1010.0
20260903051023 82 111 7.0 10.0 0.00 0.00 0.00 57 1009.9
20260903050525 83 108 7.0 11.0 0.00 0.00 0.00 57 1009.9
20260903050107 83 101 7.0 12.0 0.00 0.00 0.00 56 1009.9
20260903045524 83 101 7.0 12.0 0.00 0.00 0.00 56 1009.8
20260903045024 83 106 8.0 12.0 0.00 0.00 0.00 56 1009.8
20260903044551 83 103 7.0 12.0 0.00 0.00 0.00 55 1009.8
20260903044024 84 100 8.0 13.0 0.00 0.00 0.00 55 1009.8
20260903043524 84 115 8.0 13.0 0.00 0.00 0.00 55 1009.9
20260903043048 84 106 8.0 13.0 0.00 0.00 0.00 55 1009.9
20260903042523 84 88 8.0 13.0 0.00 0.00 0.00 54 1009.9
20260903042024 84 105 8.0 13.0 0.00 0.00 0.00 54 1009.9
20260903041545 84 105 9.0 13.0 0.00 0.00 0.00 54 1009.9
20260903041024 85 109 7.0 12.0 0.00 0.00 0.00 54 1009.9
20260903040526 85 98 9.0 13.0 0.00 0.00 0.00 53 1009.9
20260903040049 85 107 8.0 14.0 0.00 0.00 0.00 53 1010.0
20260903035521 85 107 9.0 14.0 0.00 0.00 0.00 53 1010.0
20260903035025 85 101 9.0 13.0 0.00 0.00 0.00 53 1010.0
20260903034548 85 105 8.0 14.0 0.00 0.00 0.00 53 1010.0
20260903034024 85 90 9.0 14.0 0.00 0.00 0.00 53 1010.0
20260903033528 85 104 8.0 13.0 0.00 0.00 0.00 52 1010.1
20260903033045 85 99 8.0 14.0 0.00 0.00 0.00 52 1010.2
20260903032526 85 91 8.0 14.0 0.00 0.00 0.00 52 1010.2
20260903032024 85 94 8.0 14.0 0.00 0.00 0.00 52 1010.2
20260903031545 85 96 9.0 14.0 0.00 0.00 0.00 52 1010.1
20260903031024 85 115 8.0 13.0 0.00 0.00 0.00 52 1010.0
20260903030525 85 105 8.0 13.0 0.00 0.00 0.00 52 1010.1
20260903030049 85 99 8.0 12.0 0.00 0.00 0.00 52 1010.1
20260903025525 85 93 8.0 12.0 0.00 0.00 0.00 52 1010.1
20260903025023 85 103 6.0 10.0 0.00 0.00 0.00 51 1010.0
20260903024545 86 99 6.0 10.0 0.00 0.00 0.00 51 1010.0
20260903024023 86 104 5.0 9.0 0.00 0.00 0.00 51 1010.0
20260903023523 86 103 5.0 9.0 0.00 0.00 0.00 51 1010.0
20260903023043 86 101 7.0 10.0 0.00 0.00 0.00 50 1010.0
20260903022525 86 105 6.0 11.0 0.00 0.00 0.00 50 1009.9
20260903022024 86 102 6.0 11.0 0.00 0.00 0.00 50 1009.8
20260903021546 87 112 7.0 11.0 0.00 0.00 0.00 49 1009.7
20260903021023 87 94 5.0 9.0 0.00 0.00 0.00 49 1009.7
20260903020523 87 101 5.0 9.0 0.00 0.00 0.00 49 1009.5
20260903020050 87 107 6.0 10.0 0.00 0.00 0.00 49 1009.4
20260903015523 88 109 6.0 10.0 0.00 0.00 0.00 48 1009.3
20260903015025 88 103 7.0 12.0 0.00 0.00 0.00 48 1009.3
20260903014549 88 94 6.0 12.0 0.00 0.00 0.00 48 1009.4
20260903014024 88 101 7.0 12.0 0.00 0.00 0.00 47 1009.2
20260903013525 89 111 7.0 9.0 0.00 0.00 0.00 47 1009.2
20260903013045 89 104 5.0 9.0 0.00 0.00 0.00 46 1009.1
20260903012530 90 109 6.0 9.0 0.00 0.00 0.00 46 1009.0
20260903012027 90 105 6.0 10.0 0.00 0.00 0.00 46 1009.0
20260903011558 90 114 6.0 10.0 0.00 0.00 0.00 45 1009.0
20260903011024 91 103 7.0 11.0 0.00 0.00 0.00 45 1009.0
20260903010527 91 112 7.0 11.0 0.00 0.00 0.00 44 1008.9
20260903010044 92 103 7.0 11.0 0.00 0.00 0.00 43 1009.0
20260903005526 92 101 8.0 13.0 0.00 0.00 0.00 42 1009.0
20260903005025 93 109 9.0 13.0 0.00 0.00 0.00 42 1008.9
20260903004541 93 104 8.0 13.0 0.00 0.00 0.00 41 1008.9
20260903004026 94 115 7.0 13.0 0.00 0.00 0.00 41 1009.0
20260903003525 95 103 9.0 13.0 0.00 0.00 0.00 40 1009.0
20260903003046 95 107 9.0 13.0 0.00 0.00 0.00 40 1009.1
20260903002529 95 94 9.0 13.0 0.00 0.00 0.00 39 1009.1
20260903002024 96 108 9.0 15.0 0.00 0.00 0.00 39 1009.0
20260903001543 96 108 8.0 15.0 0.00 0.00 0.00 39 1009.0
20260903001021 97 124 9.0 15.0 0.00 0.00 0.00 38 1009.0
20260903000521 97 106 10.0 14.0 0.00 0.00 0.00 38 1009.0
20260903000046 97 109 8.0 17.0 0.00 0.00 0.00 37 1009.2
20260902235524 98 123 10.0 17.0 0.00 0.00 0.00 36 1009.0
20260902235023 98 107 10.0 17.0 0.00 0.00 0.00 36 1009.0
20260902234547 98 109 9.0 19.0 0.00 0.00 0.00 36 1009.0
20260902234023 98 102 11.0 19.0 0.00 0.00 0.00 36 1009.1
20260902233526 98 110 13.0 21.0 0.00 0.00 0.00 35 1009.0
20260902233053 98 126 13.0 21.0 0.00 0.00 0.00 35 1009.0
20260902232526 98 129 12.0 21.0 0.00 0.00 0.00 35 1009.1
20260902232023 99 135 13.0 21.0 0.00 0.00 0.00 34 1009.1
20260902231558 99 139 13.0 20.0 0.00 0.00 0.00 35 1009.0
20260902231021 99 98 11.0 20.0 0.00 0.00 0.00 35 1009.0
20260902230524 99 100 11.0 18.0 0.00 0.00 0.00 35 1009.0
20260902230048 99 102 12.0 19.0 0.00 0.00 0.00 35 1009.0
20260902225524 100 101 12.0 19.0 0.00 0.00 0.00 35 1009.1
20260902225024 100 116 11.0 19.0 0.00 0.00 0.00 35 1009.1
20260902224553 100 120 12.0 19.0 0.00 0.00 0.00 35 1009.1
20260902224023 101 130 13.0 17.0 0.00 0.00 0.00 34 1009.1
20260902223525 101 114 11.0 18.0 0.00 0.00 0.00 34 1009.3
20260902223043 101 119 10.0 19.0 0.00 0.00 0.00 33 1009.3
20260902222524 101 144 11.0 19.0 0.00 0.00 0.00 32 1009.3
20260902222024 101 124 10.0 19.0 0.00 0.00 0.00 32 1009.3
20260902221550 101 128 12.0 19.0 0.00 0.00 0.00 31 1009.4
20260902221027 101 103 11.0 19.0 0.00 0.00 0.00 32 1009.4
20260902220524 100 115 9.0 19.0 0.00 0.00 0.00 32 1009.4
20260902220044 102 119 11.0 18.0 0.00 0.00 0.00 32 1009.5
20260902215524 102 128 10.0 18.0 0.00 0.00 0.00 32 1009.4
20260902215024 102 123 11.0 19.0 0.00 0.00 0.00 31 1009.5
20260902214546 102 117 12.0 20.0 0.00 0.00 0.00 32 1009.5
20260902214024 102 139 12.0 20.0 0.00 0.00 0.00 30 1009.6
20260902213525 102 120 11.0 20.0 0.00 0.00 0.00 29 1009.6
20260902213052 102 153 8.0 20.0 0.00 0.00 0.00 30 1009.6
20260902212525 102 123 11.0 21.0 0.00 0.00 0.00 30 1009.7
20260902212024 102 122 15.0 21.0 0.00 0.00 0.00 30 1009.7
20260902211552 101 129 5.0 14.0 0.00 0.00 0.00 31 1009.8
20260902211026 102 146 7.0 17.0 0.00 0.00 0.00 30 1010.0
20260902210525 102 144 7.0 20.0 0.00 0.00 0.00 31 1010.0
20260902210047 101 145 12.0 20.0 0.00 0.00 0.00 31 1010.1
20260902205525 101 103 13.0 20.0 0.00 0.00 0.00 32 1010.1
20260902205024 101 141 11.0 20.0 0.00 0.00 0.00 32 1010.1
20260902204547 102 169 9.0 17.0 0.00 0.00 0.00 31 1010.3
20260902204024 102 157 7.0 17.0 0.00 0.00 0.00 31 1010.3
20260902203523 101 126 6.0 19.0 0.00 0.00 0.00 31 1010.3
20260902203046 102 151 9.0 19.0 0.00 0.00 0.00 30 1010.4
20260902202524 103 113 10.0 16.0 0.00 0.00 0.00 31 1010.5
20260902202024 103 138 6.0 18.0 0.00 0.00 0.00 32 1010.6
20260902201542 102 178 11.0 23.0 0.00 0.00 0.00 31 1010.7
20260902201023 102 115 11.0 23.0 0.00 0.00 0.00 31 1010.6
20260902200528 101 117 12.0 20.0 0.00 0.00 0.00 33 1010.7
20260902200045 102 96 11.0 21.0 0.00 0.00 0.00 33 1010.8
20260902195523 102 112 12.0 21.0 0.00 0.00 0.00 32 1010.8
20260902195025 103 101 9.0 18.0 0.00 0.00 0.00 33 1010.8
20260902194544 102 102 11.0 18.0 0.00 0.00 0.00 33 1010.9
20260902194025 102 106 10.0 21.0 0.00 0.00 0.00 32 1011.0
20260902193524 102 90 11.0 21.0 0.00 0.00 0.00 33 1011.1
20260902193049 102 127 12.0 19.0 0.00 0.00 0.00 33 1011.1
20260902192524 102 101 11.0 19.0 0.00 0.00 0.00 35 1011.1
20260902192024 101 111 9.0 19.0 0.00 0.00 0.00 35 1011.3
20260902191546 102 123 12.0 19.0 0.00 0.00 0.00 34 1011.3
20260902191026 101 117 10.0 24.0 0.00 0.00 0.00 37 1011.4
20260902190525 101 117 13.0 24.0 0.00 0.00 0.00 37 1011.4
20260902190046 101 134 9.0 19.0 0.00 0.00 0.00 36 1011.6
20260902185524 101 149 12.0 25.0 0.00 0.00 0.00 36 1011.7
20260902185024 101 96 13.0 25.0 0.00 0.00 0.00 36 1011.7
20260902184552 102 104 13.0 23.0 0.00 0.00 0.00 36 1011.8
20260902184023 101 144 7.0 18.0 0.00 0.00 0.00 37 1011.9
20260902183524 101 126 12.0 20.0 0.00 0.00 0.00 38 1012.0
20260902183045 100 124 11.0 23.0 0.00 0.00 0.00 37 1012.0
20260902182523 100 148 10.0 23.0 0.00 0.00 0.00 37 1012.2
20260902182025 100 107 12.0 20.0 0.00 0.00 0.00 38 1012.2
20260902181546 99 103 10.0 20.0 0.00 0.00 0.00 39 1012.3
20260902181026 99 109 13.0 21.0 0.00 0.00 0.00 39 1012.4
20260902180523 99 113 14.0 23.0 0.00 0.00 0.00 39 1012.4
20260902175522 99 113 9.0 17.0 0.00 0.00 0.00 39 1012.4
20260902175025 99 121 10.0 20.0 0.00 0.00 0.00 40 1012.5
20260902174549 99 136 11.0 23.0 0.00 0.00 0.00 40 1012.7
20260902174024 99 153 11.0 23.0 0.00 0.00 0.00 40 1012.7
20260902173526 99 147 16.0 23.0 0.00 0.00 0.00 40 1012.8
20260902173046 98 154 10.0 19.0 0.00 0.00 0.00 42 1012.9
20260902172526 98 130 10.0 19.0 0.00 0.00 0.00 41 1012.9
20260902172024 98 132 12.0 19.0 0.00 0.00 0.00 42 1013.0
20260902171548 97 128 14.0 19.0 0.00 0.00 0.00 42 1013.0
20260902171024 97 102 10.0 19.0 0.00 0.00 0.00 42 1013.0
20260902170525 97 122 9.0 19.0 0.00 0.00 0.00 43 1013.1
20260902170047 97 138 11.0 18.0 0.00 0.00 0.00 43 1013.2
20260902165525 97 124 10.0 20.0 0.00 0.00 0.00 43 1013.1
20260902165028 96 146 10.0 20.0 0.00 0.00 0.00 44 1013.1
20260902164545 96 136 10.0 19.0 0.00 0.00 0.00 44 1013.2
20260902164024 95 155 9.0 22.0 0.00 0.00 0.00 45 1013.3
20260902163524 96 144 11.0 22.0 0.00 0.00 0.00 45 1013.3
20260902163051 95 153 12.0 21.0 0.00 0.00 0.00 45 1013.5
20260902162524 95 110 9.0 18.0 0.00 0.00 0.00 46 1013.5
20260902162024 95 157 10.0 19.0 0.00 0.00 0.00 45 1013.5
20260902161553 95 130 11.0 19.0 0.00 0.00 0.00 46 1013.5
20260902161026 94 150 10.0 22.0 0.00 0.00 0.00 47 1013.5
20260902160525 94 146 12.0 24.0 0.00 0.00 0.00 46 1013.5
20260902160044 94 103 9.0 24.0 0.00 0.00 0.00 47 1013.6
20260902155528 94 143 15.0 24.0 0.00 0.00 0.00 47 1013.6
20260902155026 94 138 9.0 20.0 0.00 0.00 0.00 48 1013.5
20260902154544 93 127 9.0 20.0 0.00 0.00 0.00 48 1013.7
20260902154025 93 161 12.0 20.0 0.00 0.00 0.00 48 1013.6
20260902153525 93 159 12.0 20.0 0.00 0.00 0.00 49 1013.6
20260902153050 92 137 11.0 22.0 0.00 0.00 0.00 49 1013.6
20260902152526 91 130 10.0 22.0 0.00 0.00 0.00 51 1013.6
20260902152023 91 133 12.0 22.0 0.00 0.00 0.00 51 1013.6
20260902151545 91 154 9.0 18.0 0.00 0.00 0.00 52 1013.6
20260902151027 90 131 9.0 16.0 0.00 0.00 0.00 53 1013.6
20260902150524 90 123 11.0 20.0 0.00 0.00 0.00 53 1013.6
20260902150045 90 138 13.0 20.0 0.00 0.00 0.00 53 1013.6
20260902145523 89 103 10.0 20.0 0.00 0.00 0.00 54 1013.6
20260902145026 89 153 11.0 20.0 0.00 0.00 0.00 54 1013.6
20260902144543 88 148 10.0 20.0 0.00 0.00 0.00 55 1013.5
20260902144024 88 140 10.0 18.0 0.00 0.00 0.00 56 1013.6
20260902143523 87 119 7.0 16.0 0.00 0.00 0.00 57 1013.6
20260902143045 87 116 9.0 16.0 0.00 0.00 0.00 57 1013.6
20260902142520 86 123 7.0 15.0 0.00 0.00 0.00 59 1013.6
20260902142025 85 119 8.0 14.0 0.00 0.00 0.00 60 1013.6
20260902141544 85 119 6.0 12.0 0.00 0.00 0.00 61 1013.6
20260902141024 84 111 7.0 12.0 0.00 0.00 0.00 62 1013.5
20260902140524 83 124 7.0 12.0 0.00 0.00 0.00 63 1013.6
20260902140042 83 132 6.0 12.0 0.00 0.00 0.00 64 1013.6
20260902135524 82 112 6.0 10.0 0.00 0.00 0.00 65 1013.7
20260902135025 81 113 6.0 11.0 0.00 0.00 0.00 66 1013.6
20260902134544 81 107 6.0 11.0 0.00 0.00 0.00 67 1013.6
20260902134022 80 109 6.0 11.0 0.00 0.00 0.00 68 1013.6
20260902133524 79 103 6.0 11.0 0.00 0.00 0.00 69 1013.5
20260902133045 78 98 7.0 10.0 0.00 0.00 0.00 70 1013.5
20260902132524 78 129 6.0 10.0 0.00 0.00 0.00 71 1013.4
20260902132023 77 97 7.0 10.0 0.00 0.00 0.00 72 1013.4
20260902131544 76 107 6.0 10.0 0.00 0.00 0.00 74 1013.5